ARG1645 SAZS-SABE

Flight info

Callsign ARG1645
Flight time N/A
Altitude 39000
Route LIMAY2C LIMAY UZ109 ISMIL UT655 ASADA
Aircraft B738/M-SDE2E3FGHIRWXY/LB1

Departure

Time 2026-04-23 23:16
Airport Teniente Luis Candelaria International Airport (SAZS)

Arrival

Time N/A
Airport Aeroparque Jorge Newbery (SABE)
Time Latitude Longitude Altitude Speed Heading
2026-04-23 22:53 -41.14645 -71.16190 2783 ft 0 kts 25°
2026-04-23 23:06 -41.14652 -71.16194 2783 ft 2 kts 25°
2026-04-23 23:07 -41.14665 -71.16203 2783 ft 2 kts 52°
2026-04-23 23:07 -41.14669 -71.16222 2783 ft 2 kts 99°
2026-04-23 23:07 -41.14667 -71.16231 2783 ft 1 kts 118°
2026-04-23 23:07 -41.14665 -71.16236 2783 ft 0 kts 113°
2026-04-23 23:08 -41.14665 -71.16235 2783 ft 0 kts 113°
2026-04-23 23:10 -41.14665 -71.16234 2783 ft 1 kts 114°
2026-04-23 23:10 -41.14677 -71.16218 2783 ft 4 kts 145°
2026-04-23 23:10 -41.14710 -71.16198 2783 ft 7 kts 162°
2026-04-23 23:10 -41.14755 -71.16187 2783 ft 8 kts 174°
2026-04-23 23:11 -41.14801 -71.16174 2783 ft 6 kts 146°
2026-04-23 23:11 -41.14831 -71.16121 2783 ft 9 kts 119°
2026-04-23 23:11 -41.14863 -71.16038 2783 ft 11 kts 113°
2026-04-23 23:11 -41.14899 -71.15928 2783 ft 15 kts 114°
2026-04-23 23:12 -41.14944 -71.15797 2783 ft 16 kts 114°
2026-04-23 23:12 -41.14996 -71.15648 2783 ft 19 kts 115°
2026-04-23 23:12 -41.15050 -71.15489 2783 ft 18 kts 114°
2026-04-23 23:12 -41.15098 -71.15344 2783 ft 17 kts 114°
2026-04-23 23:13 -41.15151 -71.15193 2783 ft 19 kts 115°
2026-04-23 23:13 -41.15209 -71.15028 2783 ft 21 kts 116°
2026-04-23 23:13 -41.15284 -71.14844 2783 ft 24 kts 121°
2026-04-23 23:13 -41.15339 -71.14662 2783 ft 18 kts 113°
2026-04-23 23:14 -41.15388 -71.14514 2783 ft 18 kts 116°
2026-04-23 23:14 -41.15449 -71.14470 2783 ft 0 kts 194°
2026-04-23 23:15 -41.15457 -71.14473 2783 ft 4 kts 194°
2026-04-23 23:15 -41.15501 -71.14493 2783 ft 9 kts 209°
2026-04-23 23:16 -41.15524 -71.14579 2783 ft 12 kts 291°
2026-04-23 23:16 -41.15440 -71.14838 2783 ft 69 kts 294°
2026-04-23 23:16 -41.15125 -71.15782 2787 ft 150 kts 294°
2026-04-23 23:16 -41.14594 -71.17085 3451 ft 163 kts 291°
2026-04-23 23:17 -41.14128 -71.18404 4194 ft 169 kts 284°
2026-04-23 23:17 -41.13673 -71.19987 4710 ft 199 kts 281°
2026-04-23 23:17 -41.13222 -71.21842 5235 ft 234 kts 282°
2026-04-23 23:17 -41.12580 -71.23930 6084 ft 259 kts 285°
2026-04-23 23:18 -41.11808 -71.26023 7101 ft 268 kts 287°
2026-04-23 23:18 -41.10972 -71.28188 8225 ft 269 kts 284°
2026-04-23 23:18 -41.10164 -71.30417 9194 ft 275 kts 282°
2026-04-23 23:18 -41.09362 -71.32730 10114 ft 283 kts 280°
2026-04-23 23:19 -41.08548 -71.35136 11008 ft 291 kts 279°
2026-04-23 23:19 -41.07487 -71.37532 11829 ft 326 kts 301°
2026-04-23 23:19 -41.05558 -71.39331 12616 ft 360 kts 327°
2026-04-23 23:19 -41.03245 -71.40885 12966 ft 389 kts 328°
2026-04-23 23:20 -41.00532 -71.41867 13291 ft 424 kts 355°
2026-04-23 23:20 -40.97703 -71.41425 13923 ft 432 kts 21°
2026-04-23 23:20 -40.95064 -71.39573 14710 ft 425 kts 46°
2026-04-23 23:20 -40.93002 -71.36810 15507 ft 421 kts 59°
2026-04-23 23:21 -40.91311 -71.33678 16276 ft 422 kts 66°
2026-04-23 23:21 -40.89839 -71.30330 16915 ft 428 kts 70°
2026-04-23 23:21 -40.88485 -71.26878 17253 ft 428 kts 72°
2026-04-23 23:21 -40.87187 -71.23340 17603 ft 433 kts 73°
2026-04-23 23:22 -40.85887 -71.19712 17959 ft 440 kts 72°
2026-04-23 23:22 -40.84547 -71.16065 18309 ft 445 kts 71°
2026-04-23 23:22 -40.83088 -71.12403 18661 ft 448 kts 68°
2026-04-23 23:22 -40.81551 -71.08800 19014 ft 454 kts 66°
2026-04-23 23:23 -40.79953 -71.05174 19367 ft 459 kts 65°
2026-04-23 23:23 -40.78317 -71.01552 19717 ft 462 kts 64°
2026-04-23 23:23 -40.76680 -70.97964 20063 ft 465 kts 63°
2026-04-23 23:23 -40.74975 -70.94254 20421 ft 471 kts 63°
2026-04-23 23:24 -40.73255 -70.90527 20779 ft 483 kts 62°
2026-04-23 23:24 -40.71486 -70.86713 21127 ft 488 kts 62°
2026-04-23 23:24 -40.69707 -70.82897 21477 ft 489 kts 61°
2026-04-23 23:24 -40.67923 -70.79080 21827 ft 491 kts 61°
2026-04-23 23:25 -40.66136 -70.75264 22176 ft 494 kts 60°
2026-04-23 23:25 -40.64329 -70.71416 22526 ft 497 kts 60°
2026-04-23 23:25 -40.62509 -70.67546 22877 ft 499 kts 59°
2026-04-23 23:25 -40.60678 -70.63658 23228 ft 501 kts 59°
2026-04-23 23:26 -40.58821 -70.59724 23581 ft 503 kts 59°
2026-04-23 23:26 -40.56977 -70.55820 23931 ft 505 kts 58°
2026-04-23 23:26 -40.55122 -70.51902 24282 ft 507 kts 58°
2026-04-23 23:26 -40.53259 -70.47970 24632 ft 509 kts 58°
2026-04-23 23:27 -40.51390 -70.44032 24982 ft 511 kts 57°
2026-04-23 23:27 -40.49508 -70.40071 25333 ft 512 kts 57°
2026-04-23 23:27 -40.47626 -70.36116 25683 ft 514 kts 57°
2026-04-23 23:27 -40.45719 -70.32109 26036 ft 515 kts 56°
2026-04-23 23:28 -40.43825 -70.28126 26388 ft 519 kts 55°
2026-04-23 23:28 -40.41906 -70.24099 26741 ft 526 kts 55°
2026-04-23 23:28 -40.39966 -70.20038 27091 ft 531 kts 54°
2026-04-23 23:28 -40.38008 -70.15942 27437 ft 531 kts 54°
2026-04-23 23:29 -40.36062 -70.11879 27783 ft 528 kts 54°
2026-04-23 23:29 -40.34117 -70.07824 28131 ft 525 kts 54°
2026-04-23 23:29 -40.32158 -70.03746 28485 ft 523 kts 53°
2026-04-23 23:29 -40.30234 -69.99747 28834 ft 521 kts 53°
2026-04-23 23:30 -40.28311 -69.95756 29184 ft 519 kts 53°
2026-04-23 23:30 -40.26400 -69.91795 29534 ft 516 kts 52°
2026-04-23 23:30 -40.24493 -69.87848 29884 ft 514 kts 52°
2026-04-23 23:30 -40.22589 -69.83912 30235 ft 511 kts 52°
2026-04-23 23:31 -40.20693 -69.79997 30586 ft 508 kts 52°
2026-04-23 23:31 -40.18798 -69.76088 30939 ft 506 kts 51°
2026-04-23 23:31 -40.16929 -69.72240 31288 ft 503 kts 51°
2026-04-23 23:31 -40.15064 -69.68403 31639 ft 500 kts 51°
2026-04-23 23:32 -40.13212 -69.64599 31989 ft 497 kts 51°
2026-04-23 23:32 -40.11367 -69.60813 32340 ft 494 kts 51°
2026-04-23 23:32 -40.09635 -69.57264 32671 ft 491 kts 50°
2026-04-23 23:32 -40.07752 -69.53409 33033 ft 488 kts 50°
2026-04-23 23:33 -40.05916 -69.49654 33388 ft 485 kts 50°
2026-04-23 23:33 -40.04113 -69.45972 33739 ft 482 kts 50°
2026-04-23 23:33 -40.02322 -69.42318 34089 ft 478 kts 50°
2026-04-23 23:33 -40.00537 -69.38683 34440 ft 477 kts 50°
2026-04-23 23:34 -39.98753 -69.35053 34792 ft 476 kts 50°
2026-04-23 23:34 -39.96974 -69.31436 35141 ft 475 kts 49°
2026-04-23 23:34 -39.95202 -69.27835 35490 ft 475 kts 49°
2026-04-23 23:34 -39.93415 -69.24206 35842 ft 474 kts 49°
2026-04-23 23:35 -39.91636 -69.20601 36193 ft 473 kts 49°
2026-04-23 23:35 -39.89858 -69.17001 36544 ft 473 kts 49°
2026-04-23 23:35 -39.88092 -69.13430 36892 ft 473 kts 49°
2026-04-23 23:35 -39.86315 -69.09844 37242 ft 473 kts 49°
2026-04-23 23:36 -39.84536 -69.06257 37592 ft 473 kts 49°
2026-04-23 23:36 -39.82762 -69.02683 37942 ft 474 kts 49°
2026-04-23 23:36 -39.80969 -68.99077 38294 ft 474 kts 49°
2026-04-23 23:36 -39.79202 -68.95527 38641 ft 474 kts 49°
2026-04-23 23:37 -39.77417 -68.91945 38975 ft 474 kts 49°
2026-04-23 23:37 -39.73864 -68.84828 39046 ft 475 kts 49°
2026-04-23 23:38 -39.70242 -68.77594 39050 ft 484 kts 49°
2026-04-23 23:38 -39.66537 -68.70207 39046 ft 487 kts 49°
2026-04-23 23:39 -39.62863 -68.62890 39047 ft 484 kts 49°
2026-04-23 23:39 -39.59199 -68.55615 39047 ft 484 kts 49°
2026-04-23 23:40 -39.55498 -68.48286 39047 ft 485 kts 49°
2026-04-23 23:40 -39.51824 -68.41026 39047 ft 485 kts 49°
2026-04-23 23:41 -39.48157 -68.33797 39047 ft 485 kts 49°
2026-04-23 23:41 -39.44908 -68.27393 39047 ft 484 kts 49°
2026-04-23 23:42 -39.40942 -68.19600 39047 ft 484 kts 49°
2026-04-23 23:42 -39.37303 -68.12470 39047 ft 485 kts 49°
2026-04-23 23:43 -39.33628 -68.05288 39047 ft 485 kts 49°
2026-04-23 23:43 -39.29940 -67.98097 39047 ft 485 kts 49°